Weather History for Frankfort, KY

Change the Weather History Date:

Saturday, March 8, 2014

  Actual Average Record
Temperature  
Mean Temperature 44 °F 42 °F  
Max Temperature 60 °F 53 °F 81 °F (1974)
Min Temperature 28 °F 32 °F 1 °F (1960)
Degree Days  
Heating Degree Days 21 23  
Month to date heating degree days 256 191  
Since 1 July heating degree days 4368 3830  
Cooling Degree Days 0 0  
Month to date cooling degree days 0 0  
Year to date cooling degree days 0 0  
Moisture  
Dew Point 33 °F    
Average Humidity 66    
Maximum Humidity 92    
Minimum Humidity 39    
Precipitation  
Precipitation 0.00 in 0.13 in 2.10 in (1995)
Month to date precipitation 0.90 0.99  
Year to date precipitation 7.10 7.54  
Sea Level Pressure  
Sea Level Pressure 30.06 in    
Wind  
Wind Speed 7 mph (West)    
Max Wind Speed 17 mph    
Max Gust Speed 23 mph    
Visibility 9 miles    
Events      
T = Trace of Precipitation, MM = Missing Value Source: NWS Daily Summary

Daily Weather History Graph

Daily Weather History Graph

Search for Another Location

Airport:

Trip Planner

Search our weather history database for the weather conditions in past years. The results will help you decide how hot, cold, wet, or windy it might be!

Date:

Astronomy

Mar. 08, 2014 Rise Set
Actual Time 7:01 AM EST 6:39 PM EST
Civil Twilight 6:34 AM EST 7:06 PM EST
Nautical Twilight 6:04 AM EST 7:36 PM EST
Astronomical Twilight 5:33 AM EST 8:07 PM EST
Moon 11:47 AM EST (3/8) 1:31 AM EST (3/8)
Length of Visible Light 12h 31m
Length of Day
11h 38m
First Quarter, 51% of the Moon is Illuminated
Mar 8
First Quarter
Mar 16
Full
Mar 23
Last Quarter
Mar 30
New
Apr 7
First Quarter

Hourly Weather History & Observations

Time (EST) Temp. Windchill Dew Point Humidity Pressure Visibility Wind Dir Wind Speed Gust Speed Precip Events Conditions
12:53 AM 30.9 °F 27.5 °F 28.0 °F 89% 30.01 in 10.0 mi WSW 3.5 mph - N/A   Clear
1:53 AM 35.1 °F 31.0 °F 30.9 °F 85% 30.02 in 10.0 mi WSW 4.6 mph - N/A   Clear
2:53 AM 32.0 °F - 28.9 °F 88% 30.01 in 10.0 mi Calm Calm - N/A   Clear
3:53 AM 34.0 °F - 30.0 °F 85% 30.00 in 10.0 mi Calm Calm - N/A   Clear
4:53 AM 30.9 °F 27.5 °F 28.0 °F 89% 30.00 in 10.0 mi ESE 3.5 mph - N/A   Clear
5:53 AM 28.0 °F - 27.0 °F 96% 30.03 in 8.0 mi Calm Calm - N/A   Clear
6:53 AM 30.9 °F 25.2 °F 28.0 °F 89% 30.05 in 10.0 mi SW 5.8 mph - N/A   Clear
7:53 AM 33.1 °F - 30.0 °F 89% 30.07 in 8.0 mi Calm Calm - N/A   Clear
8:53 AM 42.1 °F 37.1 °F 34.0 °F 73% 30.09 in 10.0 mi SW 8.1 mph - N/A   Clear
9:53 AM 46.9 °F - 35.1 °F 63% 30.09 in 10.0 mi WSW 11.5 mph - N/A   Clear
10:53 AM 51.1 °F - 37.0 °F 59% 30.08 in 10.0 mi WSW 9.2 mph - N/A   Clear
11:53 AM 52.0 °F - 37.0 °F 57% 30.08 in 10.0 mi West 9.2 mph - N/A   Clear
12:53 PM 55.9 °F - 37.0 °F 49% 30.05 in 10.0 mi SSW 10.4 mph - N/A   Clear
1:53 PM 57.9 °F - 36.0 °F 44% 30.03 in 10.0 mi SSW 10.4 mph - N/A   Partly Cloudy
2:53 PM 57.9 °F - 33.1 °F 39% 30.02 in 10.0 mi West 11.5 mph - N/A   Partly Cloudy
3:53 PM 60.1 °F - 35.1 °F 39% 30.01 in 10.0 mi WSW 5.8 mph - N/A   Clear
4:53 PM 57.9 °F - 34.0 °F 41% 30.01 in 10.0 mi SW 13.8 mph - N/A   Partly Cloudy
5:53 PM 57.0 °F - 35.1 °F 44% 30.03 in 10.0 mi WSW 4.6 mph - N/A   Overcast
6:53 PM 55.0 °F - 35.1 °F 47% 30.04 in 10.0 mi WSW 3.5 mph - N/A   Overcast
7:53 PM 52.0 °F - 36.0 °F 54% 30.08 in 10.0 mi WNW 9.2 mph - N/A   Overcast
8:53 PM 50.0 °F - 35.1 °F 57% 30.09 in 10.0 mi WNW 6.9 mph - N/A   Overcast
9:53 PM 46.9 °F - 37.0 °F 68% 30.12 in 6.0 mi NW 12.7 mph - N/A   Haze
10:53 PM 41.0 °F 35.8 °F 36.0 °F 82% 30.14 in 3.0 mi NW 8.1 mph 19.6 mph N/A   Haze
11:10 PM 39.0 °F 33.4 °F 34.0 °F 82% 30.14 in 3.0 mi WNW 8.1 mph - N/A   Haze
11:40 PM 37.9 °F 32.7 °F 33.1 °F 83% 30.15 in 3.0 mi NW 6.9 mph - N/A   Haze
11:53 PM 37.0 °F 33.3 °F 33.1 °F 86% 30.16 in 3.0 mi NW 4.6 mph - N/A   Overcast